Flag for Czech Republic Weather past 2 weeks in Prague, Czech Republic

Now
45 °F

Passing clouds.


Feels Like: 37 °F
Forecast: 34 / 45 °F
Wind: 20 mph from Southwest

Location: Prague Ruzyne Airport

Current Time: Mar 2, 2015 at 1:47:25 PM

Latest Report: Mar 2, 2015 at 1:00 PM


Visibility: N/A

Pressure: 29.59 "Hg

Humidity: 53%

Dew point: 28 °F

Location of PragueLocation

Historic Weather in Prague — Graph

°F

Prague temperature yesterday

Maximum temperature yesterday: 41 °F (at 4:00 PM)
Minimum temperature yesterday: 27 °F (at 2:30 AM)
Average temperature yesterday: 35 °F

Past Weeks' High & Low Weather Summary

 TemperatureHumidityPressure
High50 °F (Feb 20, 2:00 PM)100% (Mar 2, 1:30 AM)30.72 "Hg (Mar 2, 1:30 AM)
Low23 °F (Feb 17, 5:30 AM)42% (Feb 26, 2:00 PM)29.47 "Hg (Feb 21, 4:00 PM)
Average35 °F79%30.00 "Hg
* Reported Feb 15 12:00 Noon — Mar 2 12:30 PM, Prague, Weather by CustomWeather, © 2015

Note: Actual official high and low records may vary slightly from our data, if they occured in-between our weather recording intervals... More about our weather records

Advertising

Prague weather history for previous 24 hours

 ConditionsComfort  
Time TempWeatherWind HumidityBarometerVisibility
12:30 PM
Mon, Mar 2
45 °FPassing clouds.16 mph57%29.59 "HgN/A
12:00 PM45 °FPassing clouds.20 mph66%29.59 "HgN/A
11:30 AM45 °FScattered clouds.22 mph66%29.59 "HgN/A
11:00 AM43 °FBroken clouds.18 mph76%29.59 "HgN/A
10:30 AM45 °FScattered clouds.18 mph76%29.53 "HgN/A
10:00 AM43 °FScattered clouds.18 mph81%29.56 "HgN/A
9:30 AM43 °FPassing clouds.17 mph81%29.56 "HgN/A
9:00 AM45 °FPassing clouds.17 mph81%29.53 "HgN/A
8:30 AM43 °FPassing clouds.18 mph87%29.53 "HgN/A
8:00 AM43 °FScattered clouds.17 mph93%29.50 "HgN/A
7:30 AM43 °FPassing clouds.13 mph87%29.47 "HgN/A
7:00 AM43 °FLight rain. Cloudy.14 mph93%29.53 "Hg4 mi
6:30 AM43 °FLight rain. Partly cloudy.10 mph87%29.53 "HgN/A
6:00 AM41 °FLight rain. Passing clouds.12 mph93%29.50 "HgN/A
5:30 AM41 °FLight rain. Partly cloudy.10 mph93%29.53 "HgN/A
5:00 AM41 °FPassing clouds.9 mph93%29.56 "HgN/A
4:30 AM41 °FLight rain. Mostly cloudy.10 mph93%29.56 "HgN/A
4:00 AM41 °FOvercast.8 mph93%29.56 "HgN/A
3:30 AM39 °FPassing clouds.9 mph93%29.59 "HgN/A
3:00 AM41 °FClear.9 mph87%29.59 "Hg10 mi
2:30 AM41 °FPassing clouds.10 mph93%29.62 "HgN/A
2:00 AM41 °FClear.8 mph93%29.65 "Hg10 mi
1:30 AM39 °FPassing clouds.8 mph100%29.65 "HgN/A
1:00 AM41 °FPassing clouds.14 mph93%29.65 "HgN/A
12:30 AM43 °FLight rain. Passing clouds.16 mph87%29.68 "HgN/A
12:00 AM41 °FPassing clouds.14 mph87%29.68 "HgN/A
11:30 PM
Sun, Mar 1
41 °FPassing clouds.15 mph93%29.68 "HgN/A
11:00 PM41 °FPassing clouds.13 mph87%29.68 "HgN/A
10:30 PM39 °FPassing clouds.12 mph93%29.68 "HgN/A
10:00 PM41 °FPassing clouds.16 mph87%29.71 "HgN/A
9:30 PM41 °FClear.15 mph87%29.71 "Hg10 mi
8:30 PM41 °FClear.14 mph87%29.71 "Hg10 mi
8:00 PM41 °FClear.12 mph87%29.71 "Hg10 mi
7:30 PM39 °FPassing clouds.13 mph87%29.74 "HgN/A
7:00 PM39 °FPassing clouds.14 mph93%29.74 "HgN/A
6:30 PM41 °FSprinkles. Partly cloudy.17 mph81%29.74 "HgN/A
6:00 PM41 °FPartly cloudy.16 mph81%29.74 "HgN/A
5:30 PM41 °FPartly sunny.18 mph81%29.74 "HgN/A
5:00 PM39 °FPartly sunny.15 mph87%29.71 "HgN/A
4:30 PM41 °FScattered clouds.17 mph81%29.71 "HgN/A
4:00 PM41 °FScattered clouds.7 mph87%29.71 "HgN/A
3:30 PM39 °FBroken clouds.13 mph87%29.74 "HgN/A
3:00 PM39 °FCloudy.13 mph87%29.74 "HgN/A
2:30 PM37 °FOvercast.12 mph93%29.74 "Hg5 mi
2:00 PM36 °FLight rain. Mostly cloudy.9 mph93%29.74 "Hg4 mi
1:30 PM36 °FLight rain. Mostly cloudy.12 mph93%29.74 "Hg4 mi
1:00 PM36 °FLight rain. Mostly cloudy.10 mph93%29.77 "Hg3 mi
Weather by CustomWeather, © 2015

See weather overviewHow to use our weather pages